Zurück zum Katalog

STARLINK-37145

AktivKommunikationVLEO
NORAD 68548·PAYLOAD·🇺🇸 United States

Gestartet Apr 2, 2026 von Cape Canaveral Space Force Station

Loading…

Nächste Überflüge (nächste 24 Stunden)

TLE

AktuellSource: CelesTrak SupGP

Epoche: Sep 14, 2026, 22:45 UTC

1 68548C 26070G   26257.94840278 -.00019398  00000+0 -57287-3 0  2570
2 68548  53.1581 199.8435 0001324  97.5867 228.2256 15.34414429    12

Verfolge STARLINK-37145 in Echtzeit mit AllMySat

Download on the App Store